[[{"header":{"parameterUnit":"m.s-1","parameterCategory":1,"la1":30.2991,"la2":30.254,"lo1":-89.0895,"lo2":-89.0444,"dy":0.0017,"dx":0.0017,"nx":28,"ny":28,"refTime":"2025-05-20T09:00:00:Z","depth":0,"parameterNumber":2,"parameterNumberName":"U-component_of_WINDS"},"data":[0,0,0,0,0,0,0,0,0,0,0,0,0,0,0,0,0,0,0,0,0,0,0,0,0,0,0,0,0,0,0,0,0,0,0,0,0,0,0,0,0,0,0,0,0,0,0,0,0,0,0,0,0,0,0,0,0,0,-0.7645,-0.7644,0,-0.758,-0.7579,-0.7578,-0.757,-0.757,-0.7571,-0.7571,-0.75,-0.7498,-0.7495,0,0,0,0,0,0,0,0,0,0,0,0,0,-0.7756,-0.7754,-0.7645,-0.7644,-0.7643,-0.758,-0.7579,-0.7578,-0.7569,-0.757,-0.7571,-0.7572,-0.7501,-0.7498,-0.7495,0,0,0,0,0,0,0,0,0,0,0,0,0,-0.7701,-0.7753,-0.7645,-0.7631,-0.763,-0.758,-0.7579,-0.7578,-0.7569,-0.757,-0.7571,-0.7572,-0.7502,-0.7498,-0.7495,-0.7453,0,0,-0.7483,-0.7482,0,0,0,0,0,0,0,0,-0.7704,-0.7697,-0.7634,-0.7632,-0.763,-0.7584,-0.7592,-0.7536,-0.7569,-0.7592,-0.7571,-0.7573,-0.7527,-0.7521,-0.7507,-0.745,-0.7447,-0.7483,-0.7481,-0.7479,-0.7478,0,0,0,0,0,0,0,-0.7708,-0.77,-0.7619,-0.7633,-0.7631,-0.7627,-0.762,-0.7582,-0.7555,-0.759,-0.7589,-0.7582,-0.7526,-0.7511,-0.7505,-0.7446,-0.7483,-0.748,-0.7478,-0.7476,-0.7348,-0.7347,0,0,0,0,0,0,-0.7715,-0.7703,-0.7621,-0.7617,-0.767,-0.7624,-0.7616,-0.7598,-0.7555,-0.755,-0.7581,-0.7582,-0.7516,-0.751,-0.7503,-0.7449,-0.7479,-0.7476,-0.7474,-0.735,-0.7348,-0.7347,0,0,0,0,0,0,-0.7717,-0.7708,-0.7624,-0.766,-0.7649,-0.7621,-0.76,-0.7596,-0.758,-0.7549,-0.7543,-0.7571,-0.7517,-0.7508,-0.7465,-0.7447,-0.7474,-0.7471,-0.7351,-0.7349,-0.7348,-0.7343,0,0,0,0,0,0,-0.7721,-0.7709,-0.7694,-0.766,-0.7647,-0.7589,-0.7599,-0.7594,-0.7575,-0.7575,-0.7537,-0.7532,-0.7517,-0.7471,-0.7462,-0.7442,-0.7468,-0.7352,-0.735,-0.7348,-0.7345,-0.7342,-0.7339,0,0,0,0,0,-0.7725,-0.7695,-0.7693,-0.7683,-0.7628,-0.7588,-0.7581,-0.7565,-0.7573,-0.7557,-0.7536,-0.7533,-0.7451,-0.7467,-0.7456,-0.7435,-0.7353,-0.7351,-0.7348,-0.7346,-0.7342,-0.7339,0,0,0,0,0,0,-0.7726,-0.769,-0.7688,-0.7646,-0.7621,-0.7587,-0.7566,-0.7562,-0.7532,-0.7533,-0.7514,-0.7505,-0.7463,-0.7445,-0.7463,-0.7391,-0.7402,-0.7398,-0.7405,-0.74,-0.7397,-0.7402,-0.7465,0,0,0,0,0,-0.7722,-0.7694,-0.7664,-0.763,-0.7617,-0.7594,-0.7576,-0.7566,-0.7538,-0.7526,-0.7503,-0.7474,-0.7441,-0.742,-0.7389,-0.7343,-0.7333,-0.7323,-0.732,-0.7318,-0.7313,-0.7285,-0.7279,-0.7338,-0.7338,-0.7338,0,0,-0.7713,-0.7689,-0.7673,-0.7629,-0.7608,-0.7578,-0.7584,-0.7552,-0.7529,-0.7521,-0.7479,-0.7461,-0.7427,-0.7382,-0.7361,-0.7366,-0.7295,-0.7314,-0.7313,-0.7309,-0.7281,-0.7276,-0.7271,-0.7337,-0.7337,-0.7337,0,0,-0.7679,-0.766,-0.7629,-0.7608,-0.7576,-0.756,-0.7553,-0.752,-0.7507,-0.7466,-0.7458,-0.7429,-0.7374,-0.735,-0.7331,-0.7287,-0.7282,-0.7277,-0.7261,-0.7233,-0.7229,-0.7224,-0.7207,-0.7201,-0.7273,-0.7273,-0.7273,0,-0.7671,-0.7627,-0.7613,-0.7581,-0.7561,-0.7554,-0.7521,-0.75,-0.7459,-0.7445,-0.7451,-0.7381,-0.7358,-0.7306,-0.7295,-0.7281,-0.7269,-0.7281,-0.7231,-0.7226,-0.7222,-0.7205,-0.7198,-0.7273,-0.7273,-0.7273,-0.7273,0,-0.7617,-0.7586,-0.7564,-0.7526,-0.7504,-0.7471,-0.7451,-0.743,-0.7422,-0.7405,-0.7361,-0.7334,-0.7295,-0.7283,-0.7275,-0.7229,-0.7232,-0.7235,-0.7246,-0.7216,-0.7199,-0.7193,-0.7272,-0.7272,-0.7272,-0.7273,0,0,-0.7582,-0.7537,-0.7529,-0.751,-0.7474,-0.7449,-0.7416,-0.738,-0.7361,-0.7332,-0.7302,-0.7255,-0.7257,-0.7235,-0.7224,-0.72,-0.7165,-0.7205,-0.7204,-0.7197,-0.711,-0.7106,-0.7099,-0.7162,-0.7161,-0.716,-0.7112,0,-0.7544,-0.7485,-0.7471,-0.742,-0.739,-0.7382,-0.7352,-0.7326,-0.7309,-0.728,-0.7261,-0.7227,-0.7233,-0.722,-0.7196,-0.7174,-0.7147,-0.7178,-0.7131,-0.7129,-0.7137,-0.7091,-0.7088,-0.7044,-0.7105,-0.7104,-0.7104,0,-0.749,-0.7462,-0.7408,-0.7374,-0.7361,-0.7335,-0.73,-0.7272,-0.7241,-0.7231,-0.7206,-0.7197,-0.7159,-0.7173,-0.7119,-0.714,-0.712,-0.7106,-0.7104,-0.7098,-0.7113,-0.7081,-0.703,-0.7022,-0.7094,-0.7094,-0.7095,0,-0.7468,-0.7416,-0.7376,-0.7361,-0.7322,-0.7303,-0.7285,-0.7256,-0.7234,-0.7203,-0.7188,-0.7153,-0.7132,-0.7104,-0.7085,-0.7097,-0.7031,-0.7044,-0.7019,-0.7019,-0.7004,-0.7005,-0.6947,-0.6995,-0.6995,-0.6995,-0.6996,0,-0.7425,-0.7392,-0.7366,-0.7341,-0.7303,-0.7287,-0.7248,-0.723,-0.7204,-0.7174,-0.7165,-0.7137,-0.7114,-0.7082,-0.7067,-0.7023,-0.7014,-0.7003,-0.6999,-0.7002,-0.7004,-0.6987,-0.6989,-0.6994,-0.6994,-0.6994,-0.6995,0,-0.7393,-0.7375,-0.733,-0.7297,-0.7287,-0.726,-0.723,-0.7205,-0.7188,-0.7151,-0.7141,-0.7113,-0.7075,-0.7054,-0.7005,-0.6995,-0.6945,-0.6944,-0.6956,-0.6954,-0.6929,-0.6931,-0.6857,-0.6845,-0.6903,-0.6903,-0.6902,0,-0.7366,-0.734,-0.7303,-0.7284,-0.7266,-0.7234,-0.7212,-0.7194,-0.7172,-0.7134,-0.7112,-0.7074,-0.7042,-0.6981,-0.6955,-0.6918,-0.6913,-0.689,-0.6908,-0.6911,-0.691,-0.6911,-0.6907,-0.6887,-0.6886,-0.6886,-0.6885,0,-0.7318,-0.731,-0.728,-0.7246,-0.7221,-0.7193,-0.7165,-0.7148,-0.7126,-0.71,-0.7062,-0.7037,-0.6988,-0.6948,-0.6909,-0.6888,-0.6881,-0.688,-0.6872,-0.6874,-0.6882,-0.6875,-0.6945,-0.6882,-0.6882,-0.6882,-0.6882,-0.6883,-0.7286,-0.7262,-0.7233,-0.7198,-0.7176,-0.715,-0.7124,-0.7104,-0.7072,-0.7031,-0.7022,-0.6981,-0.6948,-0.6894,-0.6873,-0.6838,-0.6842,-0.6831,-0.6828,-0.6825,-0.6822,-0.6889,-0.6831,-0.6831,-0.6832,-0.6832,-0.6832,0,-0.7237,-0.7217,-0.7186,-0.7148,-0.712,-0.7119,-0.7088,-0.7064,-0.7028,-0.6999,-0.6968,-0.6922,-0.6884,-0.6856,-0.6816,-0.6793,-0.6789,-0.6783,-0.6784,-0.6778,-0.6823,-0.6833,-0.6787,-0.6787,-0.6787,-0.6787,-0.6787,-0.6787,-0.7208,-0.7166,-0.7155,-0.7101,-0.7081,-0.7041,-0.7023,-0.6998,-0.6975,-0.6924,-0.6893,-0.6875,-0.6846,-0.6803,-0.6767,-0.676,-0.6744,-0.6738,-0.673,-0.6771,-0.6776,-0.678,-0.6789,-0.6736,-0.6735,-0.6688,-0.6688,-0.6687]},{"header":{"parameterUnit":"m.s-1","parameterCategory":1,"la1":30.2991,"la2":30.254,"lo1":-89.0895,"lo2":-89.0444,"dy":0.0017,"dx":0.0017,"nx":28,"ny":28,"refTime":"2025-05-20T09:00:00:Z","depth":0,"parameterNumber":3,"parameterNumberName":"V-component_of_WINDS"},"data":[0,0,0,0,0,0,0,0,0,0,0,0,0,0,0,0,0,0,0,0,0,0,0,0,0,0,0,0,0,0,0,0,0,0,0,0,0,0,0,0,0,0,0,0,0,0,0,0,0,0,0,0,0,0,0,0,0,0,5.7513,5.7514,0,5.7615,5.7616,5.7617,5.7627,5.7626,5.7625,5.7624,5.7724,5.7728,5.7731,0,0,0,0,0,0,0,0,0,0,0,0,0,5.7328,5.7331,5.7513,5.7514,5.7516,5.7615,5.7616,5.7618,5.7628,5.7626,5.7625,5.7624,5.7723,5.7727,5.7732,0,0,0,0,0,0,0,0,0,0,0,0,0,5.7417,5.7332,5.7513,5.7533,5.7536,5.7615,5.7616,5.7618,5.7628,5.7626,5.7625,5.7623,5.7722,5.7727,5.7732,5.7797,0,0,5.7749,5.7751,0,0,0,0,0,0,0,0,5.7412,5.7423,5.7529,5.7532,5.7535,5.7607,5.7587,5.7678,5.7628,5.7593,5.7624,5.7623,5.7686,5.7694,5.7717,5.7802,5.7806,5.7749,5.7753,5.7755,5.7757,0,0,0,0,0,0,0,5.7405,5.7419,5.7553,5.753,5.7534,5.7537,5.7548,5.7605,5.7647,5.7596,5.7597,5.7609,5.7688,5.7712,5.7719,5.7807,5.7749,5.7754,5.7757,5.776,5.7957,5.7959,0,0,0,0,0,0,5.7396,5.7414,5.755,5.7556,5.7468,5.7541,5.7554,5.7585,5.7646,5.7654,5.761,5.7609,5.7703,5.7713,5.7723,5.7807,5.7755,5.776,5.7763,5.7955,5.7958,5.796,0,0,0,0,0,0,5.7392,5.7408,5.7546,5.7486,5.7503,5.7546,5.7582,5.7588,5.7612,5.7657,5.7665,5.7627,5.7702,5.7715,5.778,5.781,5.7762,5.7767,5.7953,5.7956,5.7959,5.7972,0,0,0,0,0,0,5.7386,5.7406,5.7431,5.7486,5.7507,5.7601,5.7584,5.7591,5.7622,5.7622,5.7675,5.7682,5.7702,5.7772,5.7786,5.7817,5.7772,5.795,5.7954,5.7958,5.7969,5.7975,5.7981,0,0,0,0,0,5.738,5.7428,5.7432,5.7448,5.7538,5.7603,5.7615,5.7638,5.7624,5.765,5.768,5.768,5.7805,5.7779,5.7794,5.7827,5.7949,5.7953,5.7958,5.7967,5.7974,5.7981,0,0,0,0,0,0,5.7372,5.7435,5.744,5.7508,5.7551,5.7605,5.7637,5.7644,5.7689,5.7687,5.7713,5.7725,5.779,5.7815,5.7785,5.7896,5.7875,5.7883,5.7877,5.7885,5.789,5.7883,5.7776,0,0,0,0,0,5.7378,5.7426,5.7479,5.7534,5.7556,5.7593,5.7622,5.7637,5.7681,5.7698,5.7733,5.7775,5.7825,5.7856,5.7903,5.7974,5.7988,5.8005,5.801,5.8015,5.8021,5.8065,5.8075,5.7975,5.7975,5.7974,0,0,5.7391,5.7432,5.746,5.7534,5.7568,5.7618,5.7608,5.7659,5.7697,5.7706,5.7771,5.7798,5.7847,5.7917,5.7949,5.794,5.8052,5.802,5.8023,5.8028,5.8071,5.808,5.8089,5.7978,5.7977,5.7977,0,0,5.7441,5.7476,5.7528,5.7565,5.7619,5.7645,5.7657,5.7712,5.7732,5.7798,5.7808,5.7853,5.7936,5.7972,5.8002,5.8074,5.8077,5.8088,5.8117,5.816,5.8168,5.8175,5.8204,5.8214,5.8094,5.8094,5.8094,0,5.745,5.7526,5.7553,5.7607,5.7641,5.7655,5.7709,5.7743,5.7809,5.7832,5.7821,5.7931,5.7964,5.8045,5.8063,5.8085,5.8103,5.8081,5.8165,5.8172,5.8179,5.8207,5.8218,5.8096,5.8095,5.8095,5.8095,0,5.7536,5.759,5.7625,5.7693,5.7731,5.7784,5.782,5.7855,5.7869,5.7896,5.7967,5.8009,5.8068,5.8088,5.8099,5.8172,5.8166,5.8159,5.8139,5.819,5.8217,5.8227,5.8097,5.8097,5.8096,5.8096,0,0,5.7579,5.7667,5.7679,5.7713,5.7777,5.7819,5.7875,5.7935,5.7966,5.8013,5.8062,5.8136,5.8133,5.8166,5.8183,5.8221,5.828,5.8211,5.8213,5.8224,5.8368,5.8373,5.8385,5.8284,5.8286,5.8287,5.8365,0,5.7638,5.774,5.7769,5.7855,5.7907,5.7924,5.7974,5.8019,5.8048,5.8096,5.8128,5.8181,5.8171,5.8193,5.8231,5.8265,5.8309,5.8259,5.8331,5.8333,5.8319,5.8398,5.8402,5.8473,5.8375,5.8377,5.8378,0,5.7719,5.7772,5.7864,5.7928,5.795,5.7994,5.8055,5.8101,5.8155,5.8173,5.8215,5.823,5.8291,5.8269,5.8355,5.8321,5.8352,5.8374,5.8377,5.8385,5.8359,5.841,5.8496,5.8507,5.8394,5.8393,5.8392,0,5.7745,5.7839,5.7908,5.7936,5.801,5.8042,5.8074,5.8126,5.8163,5.8216,5.8241,5.83,5.8332,5.8378,5.841,5.839,5.8495,5.8474,5.8514,5.8513,5.8534,5.8533,5.8628,5.8553,5.8552,5.8552,5.8552,0,5.7808,5.7864,5.7922,5.7964,5.8029,5.8063,5.8127,5.816,5.8208,5.8258,5.8276,5.8322,5.8361,5.8414,5.8439,5.8509,5.8523,5.8541,5.8547,5.854,5.8538,5.8561,5.8557,5.8555,5.8554,5.8554,5.8553,0,5.7847,5.7887,5.7964,5.8031,5.805,5.8095,5.8153,5.8195,5.8227,5.8291,5.8308,5.8357,5.8421,5.8458,5.8536,5.8554,5.8633,5.8636,5.8616,5.8619,5.8658,5.8655,5.8772,5.8791,5.8701,5.8702,5.8702,0,5.7885,5.793,5.8004,5.804,5.8074,5.8131,5.8171,5.8208,5.8248,5.8316,5.8352,5.8417,5.8471,5.8573,5.8616,5.8678,5.8684,5.8721,5.8693,5.8686,5.8688,5.8685,5.8692,5.8725,5.8726,5.8727,5.8727,0,5.795,5.7969,5.8025,5.8091,5.8138,5.8191,5.8243,5.8271,5.8318,5.8362,5.8429,5.8472,5.8556,5.8622,5.8689,5.8723,5.8734,5.8737,5.875,5.8743,5.8731,5.8742,5.8631,5.8733,5.8733,5.8732,5.8732,5.8732,5.7991,5.8034,5.8094,5.8158,5.8203,5.8253,5.8298,5.8338,5.8395,5.8468,5.8487,5.8558,5.8616,5.8708,5.8745,5.8802,5.8796,5.8813,5.8818,5.8823,5.8826,5.8722,5.8814,5.8814,5.8814,5.8814,5.8813,0,5.8059,5.81,5.8159,5.8234,5.8286,5.8295,5.8355,5.8397,5.846,5.8514,5.857,5.865,5.8715,5.8766,5.8834,5.8871,5.8878,5.8888,5.8886,5.8894,5.8826,5.8809,5.8881,5.8881,5.8881,5.8881,5.8881,5.8881,5.81,5.8175,5.8202,5.8301,5.8342,5.8414,5.8448,5.8496,5.854,5.8629,5.8685,5.8719,5.8773,5.8846,5.8908,5.8922,5.8947,5.8956,5.8971,5.8906,5.8898,5.8891,5.8876,5.8961,5.8961,5.9035,5.9036,5.9036]}]]